This is the latest recevied weather packets stored in our database for station/object AA8FM-13. If no packets are shown the sender has not sent any weather packets the latest 10 day(s).
| Time | Temp. | Humidity | Pressure | Rain* | Wind** | Luminosity | Snow |
|---|---|---|---|---|---|---|---|
| 1778059030 | 13.33° C | 99% | 1005.2 hPa | 6.1 mm | - | 0 W/m² | - |
| 1778058727 | 13.89° C | 99% | 1005.2 hPa | 7.87 mm | - | 0 W/m² | - |
| 1778058425 | 13.33° C | 98% | 1005.5 hPa | 7.87 mm | - | 0 W/m² | - |
| 1778058121 | 13.89° C | 98% | 1005.5 hPa | 4.83 mm | - | 0 W/m² | - |
| 1778057818 | 13.89° C | 98% | 1005.3 hPa | 3.05 mm | - | 0 W/m² | - |
| 1778057514 | 13.89° C | 97% | 1005 hPa | 1.27 mm | - | 0 W/m² | - |
| 1778057211 | 13.89° C | 97% | 1004.7 hPa | 1.78 mm | - | 0 W/m² | - |
| 1778056908 | 13.89° C | 96% | 1004.8 hPa | 1.78 mm | - | 0 W/m² | - |
| 1778056605 | 14.44° C | 95% | 1004.8 hPa | 0 mm | - | 0 W/m² | - |
| 1778056302 | 14.44° C | 94% | 1005 hPa | 1.27 mm | - | 0 W/m² | - |
| 1778055999 | 14.44° C | 92% | 1005.1 hPa | 1.27 mm | - | 0 W/m² | - |
| 1778055694 | 14.44° C | 91% | 1005 hPa | 1.78 mm | - | 0 W/m² | - |
| 1778055393 | 13.89° C | 94% | 1005 hPa | 1.78 mm | - | 0 W/m² | - |
| 1778055090 | 13.89° C | 95% | 1005 hPa | 0 mm | - | 0 W/m² | - |
| 1778054788 | 13.89° C | 95% | 1004.6 hPa | 0 mm | - | 0 W/m² | - |
| 1778054484 | 14.44° C | 95% | 1004.5 hPa | 0 mm | - | 0 W/m² | - |
| 1778054182 | 14.44° C | 93% | 1004.4 hPa | 0 mm | - | 0 W/m² | - |
| 1778053878 | 14.44° C | 92% | 1004.7 hPa | 0 mm | - | 0 W/m² | - |
| 1778053576 | 15° C | 91% | 1004.5 hPa | 0 mm | - | 0 W/m² | - |
| 1778053273 | 14.44° C | 89% | 1004.7 hPa | 0 mm | - | 0 W/m² | - |
| 1778052971 | 15° C | 89% | 1004.5 hPa | 0 mm | - | 0 W/m² | - |
| 1778052668 | 15° C | 87% | 1004.4 hPa | 0 mm | - | 0 W/m² | - |
| 1778052364 | 15° C | 84% | 1004.2 hPa | 0 mm | - | 0 W/m² | - |
| 1778052063 | 15° C | 84% | 1004.2 hPa | 0 mm | - | 0 W/m² | - |
| 1778051760 | 15° C | 85% | 1004.5 hPa | 0 mm | - | 0 W/m² | - |
* Rain latest hour (hover to see other rain measurements)
** Current wind speed in m/s (hover to see current wind gust speed)